• In Switzerland
  • List of Countries
  • For 7 days
  • Water Temperature
  • Satellite Maps
  • Weather Map
  • Weather Widgets
  • user-avatar
    Login

    Hourly Weather Northallerton

    Today, 14 December, Thursday

    Time Temperature Precipitation Wind Pressure Humidity
    00:00 -1°C° 0 mm 5 mps 734 mmHg 85%
    01:00 -1°C° 0 mm 5 mps 734 mmHg 84%
    02:00 -1°C° 0 mm 5 mps 734 mmHg 83%
    03:00 0°C° 0 mm 5 mps 734 mmHg 82%
    04:00 0°C° 0 mm 5 mps 734 mmHg 83%
    05:00 -1°C° 0 mm 4 mps 734 mmHg 83%
    06:00 -1°C° 0 mm 4 mps 734 mmHg 86%
    07:00 0°C° 0 mm 4 mps 734 mmHg 85%
    08:00 0°C° 0 mm 5 mps 734 mmHg 84%
    09:00 +1°C° 0 mm 5 mps 734 mmHg 83%
    10:00 +1°C° 0 mm 5 mps 734 mmHg 82%
    11:00 +2°C° 0 mm 5 mps 734 mmHg 80%
    12:00 +2°C° 0 mm 5 mps 733 mmHg 81%
    13:00 +2°C° 0.2 mm 5 mps 733 mmHg 82%
    14:00 +2°C° 0.2 mm 6 mps 733 mmHg 83%
    15:00 +2°C° 0.2 mm 6 mps 733 mmHg 85%
    16:00 +2°C° 0.3 mm 5 mps 733 mmHg 85%
    17:00 +1°C° 0.3 mm 5 mps 733 mmHg 86%
    18:00 +1°C° 0.3 mm 4 mps 733 mmHg 87%
    19:00 0°C° 0 mm 4 mps 733 mmHg 86%
    20:00 +1°C° 0 mm 3 mps 734 mmHg 85%
    21:00 0°C° 0 mm 3 mps 734 mmHg 84%
    22:00 0°C° 0.2 mm 3 mps 734 mmHg 85%
    23:00 +1°C° 0.2 mm 3 mps 735 mmHg 86%

    Tomorrow, 15 December, Friday

    Time Temperature Precipitation Wind Pressure Humidity
    00:00 +1°C° 0.2 mm 3 mps 735 mmHg 87%
    01:00 0°C° 0.1 mm 4 mps 736 mmHg 86%
    02:00 0°C° 0.1 mm 5 mps 737 mmHg 84%
    03:00 -1°C° 0.1 mm 6 mps 737 mmHg 83%
    04:00 +1°C° 0 mm 6 mps 739 mmHg 82%
    05:00 0°C° 0 mm 7 mps 740 mmHg 82%
    06:00 0°C° 0 mm 7 mps 741 mmHg 82%
    07:00 0°C° 0 mm 7 mps 742 mmHg 83%
    08:00 +1°C° 0 mm 6 mps 743 mmHg 84%
    09:00 +1°C° 0 mm 6 mps 744 mmHg 85%
    10:00 +2°C° 0.1 mm 6 mps 745 mmHg 83%
    11:00 +3°C° 0.1 mm 7 mps 746 mmHg 80%
    12:00 +3°C° 0.1 mm 7 mps 747 mmHg 78%
    13:00 +3°C° 0 mm 7 mps 748 mmHg 78%
    14:00 +2°C° 0 mm 6 mps 749 mmHg 77%
    15:00 +2°C° 0 mm 6 mps 750 mmHg 77%
    16:00 +1°C° 0 mm 6 mps 751 mmHg 79%
    17:00 +1°C° 0 mm 6 mps 752 mmHg 80%
    18:00 -1°C° 0 mm 6 mps 752 mmHg 82%
    19:00 0°C° 0 mm 5 mps 753 mmHg 82%
    20:00 -1°C° 0 mm 5 mps 753 mmHg 82%
    21:00 -1°C° 0 mm 5 mps 754 mmHg 82%
    22:00 -1°C° 0 mm 5 mps 754 mmHg 81%
    23:00 -1°C° 0 mm 5 mps 755 mmHg 81%

    Day after tomorrow, 16 December, Saturday

    Time Temperature Precipitation Wind Pressure Humidity
    00:00 -2°C° 0 mm 5 mps 755 mmHg 81%
    01:00 -2°C° 0 mm 5 mps 755 mmHg 80%
    02:00 -2°C° 0 mm 5 mps 756 mmHg 80%
    03:00 -2°C° 0 mm 5 mps 756 mmHg 80%
    04:00 -2°C° 0 mm 5 mps 756 mmHg 79%
    05:00 -2°C° 0 mm 4 mps 756 mmHg 79%
    06:00 -2°C° 0 mm 4 mps 756 mmHg 78%
    07:00 -2°C° 0 mm 4 mps 757 mmHg 78%
    08:00 -1°C° 0 mm 4 mps 757 mmHg 77%
    09:00 -1°C° 0 mm 4 mps 758 mmHg 77%
    10:00 -1°C° 0 mm 4 mps 758 mmHg 73%
    11:00 0°C° 0 mm 4 mps 758 mmHg 70%
    12:00 +1°C° 0 mm 5 mps 759 mmHg 66%
    13:00 +1°C° 0 mm 4 mps 759 mmHg 69%
    14:00 0°C° 0 mm 4 mps 759 mmHg 71%
    15:00 +1°C° 0 mm 3 mps 760 mmHg 74%
    16:00 0°C° 0 mm 3 mps 760 mmHg 75%
    17:00 0°C° 0 mm 3 mps 760 mmHg 76%
    18:00 0°C° 0 mm 3 mps 761 mmHg 77%
    19:00 0°C° 0 mm 3 mps 761 mmHg 79%
    20:00 0°C° 0 mm 3 mps 762 mmHg 80%
    21:00 0°C° 0 mm 3 mps 762 mmHg 82%
    22:00 0°C° 0 mm 3 mps 762 mmHg 84%
    23:00 0°C° 0 mm 3 mps 762 mmHg 86%

    17 December, Sunday

    Time Temperature Precipitation Wind Pressure Humidity
    00:00 +1°C° 0 mm 2 mps 763 mmHg 89%
    01:00 +1°C° 0 mm 2 mps 763 mmHg 89%
    02:00 0°C° 0 mm 3 mps 763 mmHg 90%
    03:00 0°C° 0 mm 3 mps 763 mmHg 90%
    04:00 +1°C° 0 mm 3 mps 762 mmHg 91%
    05:00 +1°C° 0 mm 3 mps 762 mmHg 91%
    06:00 +1°C° 0 mm 3 mps 762 mmHg 92%
    07:00 +2°C° 0 mm 3 mps 762 mmHg 92%
    08:00 +3°C° 0 mm 4 mps 762 mmHg 92%
    09:00 +3°C° 0 mm 5 mps 762 mmHg 92%
    10:00 +3°C° 0 mm 6 mps 761 mmHg 91%
    11:00 +4°C° 0 mm 6 mps 761 mmHg 89%
    12:00 +5°C° 0 mm 7 mps 761 mmHg 87%
    13:00 +5°C° 0.2 mm 7 mps 760 mmHg 88%
    14:00 +5°C° 0.2 mm 7 mps 760 mmHg 89%
    15:00 +6°C° 0.2 mm 7 mps 759 mmHg 91%
    16:00 +6°C° 0.2 mm 7 mps 759 mmHg 91%
    17:00 +6°C° 0.2 mm 7 mps 759 mmHg 91%
    18:00 +6°C° 0.2 mm 7 mps 759 mmHg 91%
    19:00 +6°C° 0 mm 7 mps 760 mmHg 91%
    20:00 +8°C° 0 mm 6 mps 760 mmHg 91%
    21:00 +8°C° 0 mm 6 mps 761 mmHg 91%
    22:00 +7°C° 0 mm 5 mps 761 mmHg 91%
    23:00 +7°C° 0 mm 4 mps 762 mmHg 91%

    18 December, Monday

    Time Temperature Precipitation Wind Pressure Humidity
    00:00 +6°C° 0 mm 4 mps 762 mmHg 91%
    01:00 +7°C° 0 mm 3 mps 763 mmHg 91%
    02:00 +7°C° 0 mm 3 mps 763 mmHg 91%
    03:00 +6°C° 0 mm 2 mps 764 mmHg 91%
    04:00 +6°C° 0 mm 2 mps 764 mmHg 91%
    05:00 +7°C° 0 mm 1 mps 764 mmHg 90%
    06:00 +7°C° 0 mm 1 mps 765 mmHg 90%
    07:00 +7°C° 0 mm 1 mps 765 mmHg 90%
    08:00 +7°C° 0 mm 1 mps 766 mmHg 90%
    09:00 +7°C° 0 mm 1 mps 766 mmHg 89%
    10:00 +7°C° 0 mm 1 mps 766 mmHg 89%
    11:00 +8°C° 0 mm 1 mps 766 mmHg 88%
    12:00 +7°C° 0 mm 2 mps 766 mmHg 88%
    13:00 +7°C° 0 mm 2 mps 766 mmHg 90%
    14:00 +7°C° 0 mm 2 mps 766 mmHg 92%
    15:00 +7°C° 0 mm 2 mps 766 mmHg 94%
    16:00 +7°C° 0 mm 2 mps 766 mmHg 95%
    17:00 +7°C° 0 mm 2 mps 767 mmHg 96%
    18:00 +7°C° 0 mm 2 mps 767 mmHg 96%
    19:00 +8°C° 0 mm 2 mps 767 mmHg 96%
    20:00 +8°C° 0 mm 2 mps 767 mmHg 96%
    21:00 +8°C° 0 mm 3 mps 767 mmHg 96%
    22:00 +8°C° 0 mm 3 mps 767 mmHg 96%
    23:00 +8°C° 0 mm 3 mps 767 mmHg 96%

    19 December, Tuesday

    Time Temperature Precipitation Wind Pressure Humidity
    00:00 +9°C° 0 mm 3 mps 767 mmHg 96%
    01:00 +9°C° 0 mm 3 mps 767 mmHg 96%
    02:00 +9°C° 0 mm 3 mps 767 mmHg 95%
    03:00 +9°C° 0 mm 3 mps 767 mmHg 95%
    04:00 +9°C° 0 mm 3 mps 767 mmHg 95%
    05:00 +9°C° 0 mm 3 mps 767 mmHg 94%
    06:00 +9°C° 0 mm 3 mps 767 mmHg 94%
    07:00 +10°C° 0 mm 3 mps 767 mmHg 94%
    08:00 +10°C° 0 mm 3 mps 768 mmHg 94%
    09:00 +10°C° 0 mm 3 mps 768 mmHg 95%
    10:00 +11°C° 0 mm 3 mps 768 mmHg 94%
    11:00 +11°C° 0 mm 4 mps 768 mmHg 93%
    12:00 +12°C° 0 mm 4 mps 768 mmHg 92%
    13:00 +12°C° 0 mm 4 mps 768 mmHg 92%
    14:00 +12°C° 0 mm 4 mps 768 mmHg 92%
    15:00 +11°C° 0 mm 4 mps 768 mmHg 93%
    16:00 +11°C° 0 mm 4 mps 768 mmHg 93%
    17:00 +11°C° 0 mm 4 mps 768 mmHg 93%
    18:00 +11°C° 0 mm 4 mps 768 mmHg 93%
    19:00 +11°C° 0 mm 4 mps 768 mmHg 93%
    20:00 +11°C° 0 mm 4 mps 768 mmHg 93%
    21:00 +11°C° 0 mm 4 mps 768 mmHg 93%
    22:00 +11°C° 0 mm 4 mps 768 mmHg 93%
    23:00 +11°C° 0 mm 4 mps 769 mmHg 94%
    Show more